Location: Nebula Knoll Observatory
(43.6666°N, 71.0000°W)
Time: 23:48:40
(UTC-04:00)

Cosmos 1782 - Visible Passes

Search period start: 16 April 2014 00:00
Search period end: 26 April 2014 00:00
Orbit: 551 x 567 km, 82.5° (Epoch: 16 April)

Date Brightness Start Highest point End Pass type
(mag) Time Alt. Az. Time Alt. Az. Time Alt. Az.
16 Apr 4.5 22:39:25 30° N 22:39:25 30° N 22:41:36 10° N visible
17 Apr 4.3 22:37:29 36° NNW 22:37:29 36° NNW 22:40:05 10° N visible
18 Apr 5.1 20:59:37 11° ENE 20:59:37 11° ENE 21:00:11 10° ENE visible
18 Apr 4.0 22:35:29 41° NW 22:35:29 41° NW 22:38:32 10° N visible
19 Apr 4.8 20:57:34 14° ENE 20:57:34 14° ENE 20:59:08 10° NE visible
19 Apr 4.0 22:33:26 42° WNW 22:33:26 42° WNW 22:36:58 10° N visible
20 Apr 4.5 20:55:28 17° E 20:55:28 17° E 20:57:57 10° NE visible
20 Apr 4.1 22:31:20 36° W 22:31:34 37° WNW 22:35:22 10° N visible
21 Apr 4.2 20:53:18 20° E 20:53:41 20° E 20:56:41 10° NE visible
21 Apr 4.4 22:29:09 28° WSW 22:30:05 31° WNW 22:33:45 10° NNW visible
22 Apr 4.1 20:51:02 21° ESE 20:52:07 23° E 20:55:22 10° NE visible
22 Apr 4.8 22:26:53 20° WSW 22:28:35 27° WNW 22:32:06 10° NNW visible
23 Apr 3.9 20:48:41 19° SE 20:50:32 27° E 20:53:59 10° NNE visible
23 Apr 5.0 22:24:31 14° WSW 22:27:06 23° WNW 22:30:26 10° NNW visible
24 Apr 3.6 20:46:13 15° SSE 20:48:57 32° E 20:52:35 10° NNE visible
24 Apr 5.3 22:22:33 10° WSW 22:25:37 20° WNW 22:28:43 10° NNW visible
25 Apr 3.4 20:43:37 10° SSE 20:47:22 37° E 20:51:09 10° NNE visible
25 Apr 5.5 22:21:21 10° WSW 22:24:08 18° WNW 22:26:57 10° NNW visible
